Regional Weather Roundup
Issued by NWS

Home | Current Version | Previous Version | Text Only | Print | Product List | Glossary On
Versions: 1 2 3 4 5 6 7 8 9 10 11 12 13 14 15 16 17 18 19 20 21 22 23 24 25 26 27 28 29 30 31 32 33 34 35 36 37 38 39 40 41 42 43 44 45 46 47 48 49 50
000
ASUS44 KMEG 262000
RWRTN
TENNESSEE HOURLY STATE WEATHER ROUNDUP
NATIONAL WEATHER SERVICE MEMPHIS TN
300 PM CDT MON SEP 26 2016

TNZ002-004-019-021-049-052-054-088>092-262100-
WEST TENNESSEE

CITY           SKY/WX    TMP DP  RH WIND       PRES   REMARKS
MEMPHIS INTL   CLOUDY    75  60  59 NE12      30.08F
NWS MEMPHIS      N/A     72 N/A N/A MISG        N/A
JACKSON        CLOUDY   N/A N/A N/A NE5       30.10F
DYERSBURG      CLOUDY   N/A N/A N/A MISG        N/A
UNION CITY     SUNNY     68  54  60 N7        30.10F
PARIS          SUNNY     68  54  60 N10       30.10F
LEXINGTON      PTSUNNY   66  61  82 N6        30.08F
$$

TNZ008-025-027-028-033-062-065-066-262100-
NORTH MIDDLE TENNESSEE

CITY           SKY/WX    TMP DP  RH WIND       PRES   REMARKS
NASHVILLE      CLOUDY    65  62  90 N7        30.08F
CLARKSVILLE    CLOUDY    68  57  68 N6        30.09F
SMYRNA         CLOUDY    67  65  93 N8        30.07F
COOKEVILLE     PTSUNNY   79  68  69 NW8       30.06R
CROSSVILLE     PTSUNNY   77  62  59 W10       30.09S
$$

TNZ061-075-076-078-094-096-097-262100-
SOUTH MIDDLE TENNESSEE

CITY           SKY/WX    TMP DP  RH WIND       PRES   REMARKS
SHELBYVILLE    MOSUNNY   82  66  57 N8        30.05F
$$

TNZ017-018-042-046-047-262100-
NORTHEAST TENNESSEE

CITY           SKY/WX    TMP DP  RH WIND       PRES   REMARKS
TRI CITIES     PTSUNNY   84  64  50 W10       30.00F
$$

TNZ012-013-036-069-073-074-262100-
CENTRAL EAST TENNESSEE

CITY           SKY/WX    TMP DP  RH WIND       PRES   REMARKS
KNOXVILLE      LGT RAIN  71  67  87 S5        30.04R
OAK RIDGE      CLOUDY    75  71  87 S3        30.04F
GATLINBURG     CLOUDY    70  64  83 SW9       30.04R
$$

TNZ083-085-099-262100-
SOUTHEAST TENNESSEE

CITY           SKY/WX    TMP DP  RH WIND       PRES   REMARKS
CHATTANOOGA    PTSUNNY   72  70  93 SE5       30.04S
$$

SKY/WX REPORTED AS FAIR MEANS FEW OR NO CLOUDS BELOW
12 THOUSAND FEET.




USA.gov is the U.S. government's official web portal to all federal, state and local government web resources and services.